QPF
0.00 0.00 0.00 0.00 0.00 0.00 0.00 0.00 0.00 0.00 0.00 0.00 0.00 0.00 0.00 0.00 0.00 0.00 0.00 0.00 0.00 0.00 0.00 0.00 0.00 0.00 0.00 0.00 0.00 0.00 0.00 0.00 0.00 0.00 0.00 0.00 0.00 0.00 0.00 0.00 0.00 0.00 0.00 0.00
0.00 0.00 0.00 0.00 0.00 0.00 0.00 0.00 0.00 0.00 0.00 0.00 0.00 0.00 0.00 0.00 0.00 0.00 0.00 0.00 0.00 0.00 0.00 0.00 0.00 0.00 0.00 0.00 0.00 0.00 0.00 0.00 0.00 0.00 0.00 0.00 0.00 0.00 0.00 0.00 0.00 0.00 0.00 0.00
0.00 0.00 0.00 0.00 0.00 0.00 0.00 0.00 0.00 0.00 0.00 0.00 0.00 0.00 0.00 0.00 0.00 0.00 0.00 0.00 0.00 0.00 0.00 0.00 0.00 0.00 0.00 0.00 0.00 0.00 0.00 0.00 0.00 0.00 0.00 0.00 0.00 0.00 0.00 0.00 0.00 0.00 0.00 0.00
0.00 0.00 0.00 0.00 0.00 0.00 0.00 0.00 0.00 0.00 0.00 0.00 0.00 0.00 0.00 0.00 0.00 0.00 0.00 0.00 0.00 0.00 0.00 0.00 0.00 0.00 0.00 0.00 0.00 0.00 0.00 0.00 0.00 0.00 0.00 0.00 0.00 0.00 0.00 0.00 0.00 0.00 0.00 0.00
0.00 0.00 0.00 0.00 0.00 0.00 0.00 0.00 0.00 0.00 0.00 0.00 0.00 0.00 0.00 0.00 0.00 0.00 0.00 0.00 0.00 0.00 0.00 0.00 0.00 0.00 0.00 0.00 0.00 0.00 0.00 0.00 0.00 0.00 0.00 0.00 0.00 0.00 0.00 0.00 0.00 0.00 0.00 0.00
0.00 0.00 0.00 0.00 0.00 0.00 0.00 0.00 0.00 0.00 0.00 0.00 0.00 0.00 0.00 0.00 0.00 0.00 0.00 0.00 0.00 0.00 0.00 0.00 0.00 0.00 0.00 0.00 0.00 0.00 0.00 0.00 0.00 0.00 0.00 0.00 0.00 0.00 0.00 0.00 0.00 0.00 0.00 0.00
0.00 0.00 0.00 0.00 0.00 0.00 0.00 0.00 0.00 0.00 0.00 0.00 0.00 0.00 0.00 0.00 0.00 0.00 0.00 0.00 0.00 0.00 0.00 0.00 0.00 0.00 0.00 0.00 0.00 0.00 0.00 0.00 0.00 0.00 0.00 0.00 0.00 0.00 0.00 0.00 0.00 0.00 0.00 0.00
0.00 0.00 0.00 0.00 0.00 0.00 0.00 0.00 0.00 0.00 0.00 0.00 0.00 0.00 0.00 0.00 0.00 0.00 0.00 0.00 0.00 0.00 0.00 0.00 0.00 0.00 0.00 0.00 0.00 0.00 0.00 0.00 0.00 0.00 0.00 0.00 0.00 0.00 0.00 0.00 0.00 0.00 0.00 0.00
0.00 0.00 0.00 0.00 0.00 0.00 0.00 0.00 0.00 0.00 0.00 0.00 0.00 0.00 0.00 0.00 0.00 0.00 0.00 0.00 0.00 0.00 0.00 0.00 0.00 0.00 0.00 0.00 0.00 0.00 0.00 0.00 0.00 0.00 0.00 0.00 0.00 0.00 0.00 0.00 0.00 0.00 0.00 0.00
0.00 0.00 0.00 0.00 0.00 0.00 0.00 0.00 0.00 0.00 0.00 0.00 0.00 0.00 0.00 0.00 0.00 0.00 0.00 0.00 0.00 0.00 0.00 0.00 0.00 0.00 0.00 0.00 0.00 0.00 0.00 0.00 0.00 0.00 0.00 0.00 0.00 0.00 0.00 0.00 0.00 0.00 0.00 0.00
0.00 0.00 0.00 0.00 0.00 0.00 0.00 0.00 0.00 0.00 0.00 0.00 0.00 0.00 0.00 0.00 0.00 0.00 0.00 0.00 0.00 0.00 0.00 0.00 0.00 0.00 0.00 0.00 0.00 0.00 0.00 0.00 0.00 0.00 0.00 0.00 0.00 0.00 0.00 0.00 0.00 0.00 0.00 0.00
0.00 0.00 0.00 0.00 0.00 0.00 0.00 0.00 0.00 0.00 0.00 0.00 0.00 0.00 0.00 0.00 0.00 0.00 0.00 0.00 0.00 0.00 0.00 0.00 0.00 0.00 0.00 0.00 0.00 0.00 0.00 0.00 0.00 0.00 0.00 0.00 0.00 0.00 0.00 0.00 0.00 0.00 0.00 0.00
0.00 0.00 0.00 0.00 0.00 0.00 0.00 0.00 0.00 0.00 0.00 0.00 0.00 0.00 0.00 0.00 0.00 0.00 0.00 0.00 0.00 0.00 0.00 0.00 0.00 0.00 0.00 0.00 0.00 0.00 0.00 0.00 0.00 0.00 0.00 0.00 0.00 0.00 0.00 0.00 0.00 0.00 0.00 0.00
0.00 0.00 0.00 0.00 0.00 0.00 0.00 0.00 0.00 0.00 0.00 0.00 0.00 0.00 0.00 0.00 0.00 0.00 0.00 0.00 0.00 0.00 0.00 0.00 0.00 0.00 0.00 0.00 0.00 0.00 0.00 0.00 0.00 0.00 0.00 0.00 0.00 0.00 0.00 0.00 0.00 0.00 0.00 0.00
0.00 0.00 0.00 0.00 0.00 0.00 0.00 0.00 0.00 0.00 0.00 0.00 0.00 0.00 0.00 0.00 0.00 0.00 0.00 0.00 0.00 0.00 0.00 0.00 0.00 0.00 0.00 0.00 0.00 0.00 0.00 0.00 0.00 0.00 0.00 0.00 0.00 0.00 0.00 0.00 0.00 0.00 0.00 0.00
0.00 0.00 0.00 0.00 0.00 0.00 0.00 0.00 0.00 0.00 0.00 0.00 0.00 0.00 0.00 0.00 0.00 0.00 0.00 0.00 0.00 0.00 0.00 0.00 0.00 0.00 0.00 0.00 0.00 0.00 0.00 0.00 0.00 0.00 0.00 0.00 0.00 0.00 0.00 0.00 0.00 0.00 0.00 0.00
0.00 0.00 0.00 0.00 0.00 0.00 0.00 0.00 0.00 0.00 0.00 0.00 0.00 0.00 0.00 0.00 0.00 0.00 0.00 0.00 0.00 0.00 0.00 0.00 0.00 0.00 0.00 0.00 0.00 0.00 0.00 0.00 0.00 0.00 0.00 0.00 0.00 0.00 0.00 0.00 0.00 0.00 0.00 0.00
0.00 0.00 0.00 0.00 0.00 0.00 0.00 0.00 0.00 0.00 0.00 0.00 0.00 0.00 0.00 0.00 0.00 0.00 0.00 0.00 0.00 0.00 0.00 0.00 0.00 0.00 0.00 0.00 0.00 0.00 0.00 0.00 0.00 0.00 0.00 0.00 0.00 0.00 0.00 0.00 0.00 0.00 0.00 0.00
0.00 0.00 0.00 0.00 0.00 0.00 0.00 0.00 0.00 0.00 0.00 0.00 0.00 0.00 0.00 0.00 0.00 0.00 0.00 0.00 0.00 0.00 0.00 0.00 0.00 0.00 0.00 0.00 0.00 0.00 0.00 0.00 0.00 0.00 0.00 0.00 0.00 0.00 0.00 0.00 0.00 0.00 0.00 0.00
0.00 0.00 0.00 0.00 0.00 0.00 0.00 0.00 0.00 0.00 0.00 0.00 0.00 0.00 0.00 0.00 0.00 0.00 0.00 0.00 0.00 0.00 0.00 0.00 0.00 0.00 0.00 0.00 0.00 0.00 0.00 0.00 0.00 0.00 0.00 0.00 0.00 0.00 0.00 0.00 0.00 0.00 0.00 0.00
0.00 0.00 0.00 0.00 0.00 0.00 0.00 0.00 0.00 0.00 0.00 0.00 0.00 0.00 0.00 0.00 0.00 0.00 0.00 0.00 0.00 0.00 0.00 0.00 0.00 0.00 0.00 0.00 0.00 0.00 0.00 0.00 0.00 0.00 0.00 0.00 0.00 0.00 0.00 0.00 0.00 0.00 0.00 0.00
0.00 0.00 0.00 0.00 0.00 0.00 0.00 0.00 0.00 0.00 0.00 0.00 0.00 0.00 0.00 0.00 0.00 0.00 0.00 0.00 0.00 0.00 0.00 0.00 0.00 0.00 0.00 0.00 0.00 0.00 0.00 0.00 0.00 0.00 0.00 0.00 0.00 0.00 0.00 0.00 0.00 0.00 0.00 0.00
0.00 0.00 0.00 0.00 0.00 0.00 0.00 0.00 0.00 0.00 0.00 0.00 0.00 0.00 0.00 0.00 0.00 0.00 0.00 0.00 0.00 0.00 0.00 0.00 0.00 0.00 0.00 0.00 0.00 0.00 0.00 0.00 0.00 0.00 0.00 0.00 0.00 0.00 0.00 0.00 0.00 0.00 0.00 0.00
0.00 0.00 0.00 0.00 0.00 0.00 0.00 0.00 0.00 0.00 0.00 0.00 0.00 0.00 0.00 0.00 0.00 0.00 0.00 0.00 0.00 0.00 0.00 0.00 0.00 0.00 0.00 0.00 0.00 0.00 0.00 0.00 0.00 0.00 0.00 0.00 0.00 0.00 0.00 0.00 0.00 0.00 0.00 0.00
0.00 0.00 0.00 0.00 0.00 0.00 0.00 0.00 0.00 0.00 0.00 0.00 0.00 0.00 0.00 0.00 0.00 0.00 0.00 0.00 0.00 0.00 0.00 0.00 0.00 0.00 0.00 0.00 0.00 0.00 0.00 0.00 0.00 0.00 0.00 0.00 0.00 0.00 0.00 0.00 0.00 0.00 0.00 0.00
0.00 0.00 0.00 0.00 0.00 0.00 0.00 0.00 0.00 0.00 0.00 0.00 0.00 0.00 0.00 0.00 0.00 0.00 0.00 0.00 0.00 0.00 0.00 0.00 0.00 0.00 0.00 0.00 0.00 0.00 0.00 0.00 0.00 0.00 0.00 0.00 0.00 0.00 0.00 0.00 0.00 0.00 0.00 0.00
MSLP
1004.36 1004.32 1003.68 1003.00 1002.58 1002.20 1001.85 1001.54 1001.64 1002.15 1002.48 1003.35 1005.10 1006.04 1006.75 1007.42 1007.60 1009.00 1010.58 1011.86 1013.36 1014.93 1016.37 1017.35 1018.34 1019.52 1020.67 1021.77 1022.69 1023.53 1024.25 1024.65 1024.72 1024.94 1025.36 1025.78 1025.78 1025.25 1024.72 1024.58 1024.71 1025.40 1025.86 1025.88
1003.87 1003.17 1002.78 1002.43 1002.04 1002.31 1002.30 1002.12 1001.95 1001.84 1001.78 1002.80 1004.80 1007.27 1008.96 1009.75 1010.42 1010.89 1012.12 1013.36 1014.64 1016.31 1017.49 1018.72 1019.65 1020.72 1021.72 1022.70 1023.48 1024.43 1025.18 1025.45 1025.66 1026.02 1026.43 1026.32 1025.84 1025.10 1024.69 1024.71 1024.69 1025.30 1025.54 1025.74
1002.90 1002.24 1001.89 1002.37 1002.24 1002.40 1002.42 1002.44 1002.29 1002.07 1001.89 1002.36 1004.37 1007.94 1009.40 1010.99 1011.88 1013.25 1013.99 1014.82 1015.85 1017.28 1018.62 1019.67 1020.68 1021.74 1022.71 1023.54 1024.45 1025.43 1025.94 1026.35 1026.52 1026.44 1026.36 1026.09 1025.43 1025.26 1024.84 1024.98 1025.13 1025.40 1025.31 1025.46
1002.48 1002.02 1002.08 1002.51 1002.67 1002.80 1002.41 1002.19 1002.18 1002.30 1002.62 1002.85 1003.20 1007.05 1009.97 1011.68 1013.46 1014.60 1014.97 1015.84 1016.94 1018.25 1019.35 1020.35 1021.42 1022.40 1023.58 1024.72 1025.47 1026.10 1026.58 1026.80 1026.94 1026.95 1026.66 1026.33 1025.92 1025.60 1025.44 1025.46 1025.46 1025.38 1025.18 1025.23
1002.27 1002.01 1002.27 1002.48 1002.90 1002.85 1002.64 1002.52 1002.80 1002.96 1002.99 1003.25 1003.64 1008.15 1010.50 1011.78 1013.91 1015.40 1016.00 1016.91 1017.87 1018.89 1019.89 1020.92 1021.92 1023.00 1024.29 1025.27 1026.12 1026.73 1027.10 1027.39 1027.44 1027.22 1026.98 1026.65 1026.60 1026.50 1026.20 1026.02 1025.86 1025.58 1025.39 1025.26
1002.27 1001.98 1002.25 1002.41 1002.48 1002.54 1002.80 1003.04 1003.17 1003.24 1003.22 1003.48 1004.14 1005.96 1011.29 1012.64 1014.22 1015.86 1016.84 1017.91 1018.86 1019.56 1020.52 1021.64 1022.71 1023.64 1024.69 1025.65 1026.50 1027.16 1027.54 1027.68 1027.63 1027.34 1027.11 1027.12 1027.10 1026.77 1026.52 1026.40 1026.23 1026.13 1025.76 1025.50
1002.25 1002.09 1002.24 1002.81 1002.85 1002.72 1003.00 1003.33 1003.23 1002.94 1003.08 1003.61 1004.89 1008.48 1012.27 1014.39 1015.35 1016.38 1017.97 1019.11 1019.49 1020.07 1021.20 1022.27 1023.10 1024.03 1025.07 1026.09 1026.84 1027.36 1027.66 1027.74 1027.52 1027.31 1027.34 1027.39 1027.29 1027.04 1026.79 1026.76 1026.67 1026.47 1026.14 1025.88
1001.33 1001.63 1002.01 1002.41 1002.96 1002.85 1002.61 1002.82 1003.01 1002.97 1003.46 1004.54 1006.47 1010.22 1013.66 1015.51 1016.85 1017.84 1018.81 1019.50 1019.87 1020.68 1021.59 1022.32 1023.21 1024.40 1025.45 1026.43 1027.28 1027.53 1027.70 1027.47 1027.36 1027.52 1027.55 1027.54 1027.54 1027.45 1027.26 1027.20 1026.97 1026.66 1026.42 1026.12
1001.98 1002.01 1002.66 1003.07 1003.14 1003.20 1002.60 1002.68 1002.96 1003.56 1004.16 1005.23 1008.88 1011.88 1013.81 1015.17 1016.76 1017.90 1018.60 1019.37 1020.08 1020.93 1021.64 1022.53 1023.75 1024.84 1025.78 1026.94 1027.77 1028.09 1027.82 1027.34 1027.57 1027.69 1027.82 1027.83 1027.79 1027.67 1027.50 1027.29 1027.01 1026.87 1026.64 1026.18
1003.17 1002.78 1003.10 1003.40 1003.46 1003.23 1003.28 1003.44 1003.56 1004.56 1005.51 1007.20 1009.64 1011.34 1012.90 1014.40 1016.05 1017.42 1018.49 1019.42 1020.23 1021.02 1021.93 1022.96 1024.17 1025.21 1026.47 1027.57 1028.15 1028.32 1027.81 1027.51 1027.81 1027.98 1028.09 1028.11 1028.03 1027.77 1027.50 1027.36 1027.28 1027.07 1026.82 1026.41
1004.01 1003.84 1003.90 1003.84 1003.56 1003.60 1003.78 1004.12 1004.52 1004.99 1005.72 1006.65 1008.64 1012.42 1014.14 1015.31 1016.22 1017.50 1018.64 1019.58 1020.40 1021.26 1022.25 1023.30 1024.55 1025.77 1027.12 1028.10 1028.42 1028.04 1027.71 1027.83 1028.10 1028.20 1028.22 1028.26 1028.13 1027.92 1027.75 1027.70 1027.51 1027.23 1026.94 1026.60
1005.41 1005.08 1004.17 1004.25 1004.66 1004.72 1004.82 1005.26 1005.71 1006.23 1006.77 1007.77 1009.05 1013.53 1015.18 1016.04 1016.86 1017.92 1018.98 1019.85 1020.66 1021.52 1022.44 1023.58 1024.87 1026.29 1027.76 1028.35 1028.36 1028.03 1027.95 1028.16 1028.28 1028.27 1028.30 1028.36 1028.34 1028.19 1028.08 1027.99 1027.73 1027.38 1027.09 1026.62
1006.43 1005.82 1005.21 1004.91 1005.58 1005.51 1005.59 1006.23 1006.57 1006.88 1007.57 1007.98 1009.50 1013.74 1015.34 1016.32 1017.35 1018.27 1019.36 1020.27 1021.03 1021.83 1022.80 1023.92 1025.18 1026.59 1027.91 1028.52 1028.62 1028.34 1028.25 1028.48 1028.46 1028.42 1028.41 1028.56 1028.63 1028.48 1028.39 1028.21 1027.88 1027.44 1027.12 1026.62
1007.31 1006.64 1006.45 1006.50 1006.94 1007.04 1006.76 1007.18 1007.48 1007.67 1008.20 1008.69 1010.62 1013.34 1014.81 1016.06 1017.29 1018.57 1019.60 1020.47 1021.34 1022.17 1023.19 1024.14 1025.44 1026.95 1028.10 1029.10 1029.17 1028.58 1028.45 1028.61 1028.66 1028.64 1028.69 1028.90 1028.88 1028.69 1028.58 1028.35 1027.91 1027.48 1027.03 1026.54
1007.32 1007.29 1007.40 1007.58 1007.86 1007.98 1007.96 1008.10 1008.42 1008.79 1009.25 1009.90 1011.64 1013.31 1015.12 1016.48 1017.50 1018.69 1019.76 1020.67 1021.58 1022.48 1023.52 1024.56 1026.04 1027.91 1029.07 1029.52 1029.34 1028.75 1028.59 1028.80 1028.86 1028.94 1029.05 1029.10 1028.99 1028.79 1028.68 1028.34 1027.90 1027.47 1027.04 1026.44
1007.83 1008.13 1008.22 1008.50 1008.65 1008.87 1009.05 1009.30 1009.68 1010.15 1010.48 1011.19 1012.34 1014.44 1015.93 1017.01 1017.88 1018.88 1019.94 1020.77 1021.63 1022.73 1023.92 1025.30 1027.38 1028.75 1029.44 1029.83 1029.30 1029.03 1028.82 1029.04 1029.13 1029.25 1029.27 1029.26 1029.16 1028.93 1028.74 1028.39 1027.97 1027.62 1027.12 1026.55
1008.18 1008.48 1008.77 1008.98 1009.52 1009.88 1010.32 1010.44 1010.59 1011.20 1011.84 1012.15 1013.09 1014.78 1015.67 1016.70 1017.85 1018.87 1019.76 1020.86 1021.93 1023.26 1024.83 1026.76 1028.34 1029.38 1029.88 1029.76 1029.26 1028.98 1029.03 1029.28 1029.46 1029.57 1029.52 1029.46 1029.40 1029.17 1028.89 1028.52 1028.10 1027.68 1027.15 1026.58
1008.59 1008.87 1009.35 1009.72 1010.57 1011.31 1011.34 1011.38 1011.38 1012.08 1012.73 1013.27 1014.20 1015.27 1016.30 1017.66 1019.04 1020.09 1020.72 1021.62 1023.00 1024.48 1026.58 1028.08 1029.06 1029.81 1029.96 1029.60 1029.20 1029.10 1029.28 1029.53 1029.83 1029.90 1029.90 1029.76 1029.66 1029.40 1029.14 1028.71 1028.25 1027.80 1027.25 1026.74
1008.84 1009.18 1010.12 1010.89 1011.25 1011.60 1011.69 1011.88 1011.97 1012.12 1013.42 1014.06 1014.78 1015.88 1017.10 1018.75 1020.28 1021.65 1022.62 1023.44 1024.72 1026.21 1027.68 1028.69 1029.44 1029.78 1029.51 1029.30 1029.36 1029.42 1029.62 1029.91 1030.20 1030.38 1030.26 1030.06 1029.95 1029.66 1029.30 1028.98 1028.52 1028.04 1027.56 1027.05
1009.46 1009.77 1010.42 1011.65 1011.80 1011.77 1011.32 1011.88 1012.34 1012.78 1013.79 1014.86 1015.47 1016.41 1017.38 1018.49 1020.29 1022.78 1024.20 1025.47 1026.62 1027.63 1028.51 1029.19 1029.58 1029.44 1029.37 1029.64 1029.80 1030.02 1030.18 1030.53 1030.81 1030.78 1030.55 1030.40 1030.28 1029.89 1029.48 1029.29 1028.94 1028.47 1028.19 1027.72
1009.92 1010.36 1010.64 1011.64 1012.18 1011.96 1011.86 1012.44 1012.98 1013.63 1015.34 1015.62 1016.32 1017.34 1018.44 1020.02 1021.51 1023.74 1025.16 1026.43 1027.52 1028.40 1029.04 1029.28 1029.08 1029.30 1029.74 1030.08 1030.18 1030.44 1030.95 1031.25 1031.28 1031.16 1031.09 1030.78 1030.44 1030.14 1029.80 1029.70 1029.57 1029.15 1028.99 1028.59
1009.76 1010.18 1010.57 1011.48 1011.92 1012.43 1012.57 1013.14 1013.67 1015.10 1015.83 1016.65 1017.72 1019.09 1020.37 1021.78 1023.29 1024.64 1026.06 1027.20 1028.10 1028.76 1028.96 1028.86 1029.23 1029.88 1030.27 1030.48 1030.54 1031.11 1031.51 1031.66 1031.82 1031.67 1031.40 1031.05 1030.64 1030.37 1030.05 1030.04 1030.13 1029.96 1029.94 1029.52
1009.88 1010.34 1010.73 1011.54 1012.44 1012.91 1013.32 1014.00 1014.72 1015.53 1016.50 1017.64 1018.86 1020.18 1021.29 1022.68 1023.96 1025.16 1026.44 1027.48 1028.14 1028.29 1028.46 1029.04 1029.79 1030.42 1030.93 1031.34 1031.60 1031.98 1032.36 1032.34 1032.03 1031.90 1031.66 1031.27 1030.83 1030.59 1030.31 1030.35 1030.48 1030.58 1030.61 1030.30
1010.70 1010.84 1011.70 1012.24 1013.49 1013.95 1014.44 1015.02 1015.65 1016.52 1017.51 1018.66 1019.72 1020.81 1022.02 1023.32 1024.50 1025.57 1026.64 1027.34 1027.95 1028.46 1029.04 1029.74 1030.33 1031.06 1031.78 1032.21 1032.49 1032.71 1032.74 1032.30 1032.10 1031.95 1031.55 1031.55 1031.12 1030.88 1030.72 1030.77 1030.94 1030.99 1030.95 1030.76
1010.83 1011.21 1011.99 1012.75 1013.80 1014.80 1015.42 1016.12 1016.88 1017.66 1018.52 1019.47 1020.51 1021.58 1022.77 1023.94 1024.94 1025.92 1026.77 1027.62 1028.38 1029.14 1029.76 1030.54 1031.58 1032.62 1033.20 1033.42 1033.40 1033.05 1032.59 1032.22 1031.92 1031.86 1031.86 1032.04 1031.57 1031.38 1031.20 1031.19 1031.50 1031.38 1031.01 1031.20
1011.39 1011.64 1012.34 1013.10 1014.18 1014.74 1016.19 1017.23 1017.88 1018.55 1019.43 1020.42 1021.42 1022.50 1023.65 1024.46 1025.34 1026.34 1027.24 1028.12 1029.01 1029.92 1030.78 1032.05 1033.11 1033.75 1034.02 1033.93 1033.64 1033.17 1032.74 1032.58 1032.64 1032.66 1032.56 1032.33 1032.13 1032.03 1031.75 1031.57 1031.56 1031.46 1031.19 1031.17
Thickness
5761 5743 5739 5758 5773 5779 5780 5778 5772 5775 5782 5766 5750 5739 5740 5750 5743 5729 5719 5709 5698 5682 5671 5661 5649 5635 5621 5607 5593 5579 5566 5556 5548 5540 5530 5517 5508 5504 5498 5489 5482 5469 5455 5446
5749 5741 5767 5779 5785 5770 5766 5761 5763 5782 5798 5785 5755 5720 5720 5719 5711 5714 5705 5694 5682 5666 5656 5644 5633 5621 5607 5592 5579 5565 5552 5543 5534 5523 5511 5504 5497 5494 5487 5478 5469 5457 5447 5435
5745 5764 5783 5769 5766 5758 5759 5753 5758 5762 5784 5789 5762 5707 5708 5703 5701 5692 5689 5683 5673 5656 5641 5631 5619 5606 5592 5579 5565 5551 5540 5529 5519 5510 5502 5495 5492 5483 5476 5464 5454 5443 5436 5426
5755 5776 5767 5756 5751 5756 5741 5773 5768 5761 5754 5738 5784 5703 5694 5689 5676 5674 5674 5669 5658 5645 5634 5622 5608 5594 5579 5563 5551 5540 5528 5518 5508 5499 5492 5484 5478 5472 5463 5453 5443 5433 5426 5417
5747 5757 5753 5745 5746 5758 5746 5768 5756 5755 5748 5749 5758 5672 5674 5695 5670 5663 5662 5655 5648 5638 5626 5611 5598 5585 5569 5554 5541 5529 5517 5506 5497 5489 5481 5474 5464 5454 5447 5438 5429 5422 5413 5404
5755 5775 5763 5756 5762 5762 5764 5751 5749 5750 5746 5721 5748 5739 5670 5674 5671 5660 5655 5647 5637 5628 5616 5601 5588 5575 5561 5547 5532 5519 5507 5496 5487 5480 5472 5461 5451 5444 5436 5426 5417 5407 5400 5391
5747 5752 5762 5760 5742 5756 5749 5732 5707 5711 5716 5716 5748 5691 5667 5663 5663 5660 5642 5632 5629 5621 5604 5591 5580 5567 5553 5538 5523 5510 5498 5488 5480 5472 5462 5451 5442 5433 5425 5414 5404 5394 5386 5378
5740 5725 5749 5756 5743 5736 5741 5739 5715 5694 5706 5720 5724 5666 5653 5657 5650 5644 5635 5628 5621 5609 5597 5587 5575 5559 5544 5529 5513 5501 5491 5483 5474 5462 5452 5442 5431 5421 5411 5400 5392 5383 5375 5367
5733 5733 5753 5748 5751 5748 5740 5729 5752 5724 5733 5721 5678 5663 5660 5661 5648 5640 5633 5624 5614 5603 5593 5581 5565 5550 5536 5517 5502 5489 5482 5477 5464 5452 5441 5431 5420 5410 5400 5391 5382 5374 5364 5356
5736 5718 5740 5739 5747 5750 5739 5749 5717 5713 5678 5656 5660 5661 5655 5658 5648 5640 5627 5616 5608 5598 5586 5573 5557 5542 5523 5505 5492 5480 5474 5467 5453 5442 5431 5419 5409 5401 5392 5382 5372 5363 5354 5346
5738 5728 5719 5733 5727 5722 5725 5714 5721 5721 5716 5693 5685 5642 5658 5648 5645 5631 5621 5612 5602 5591 5579 5565 5549 5532 5512 5494 5482 5476 5468 5456 5443 5432 5421 5410 5401 5392 5382 5372 5362 5354 5345 5337
5726 5718 5711 5715 5731 5736 5729 5713 5713 5688 5686 5696 5692 5632 5650 5644 5637 5627 5615 5606 5597 5586 5573 5559 5542 5522 5500 5486 5476 5470 5458 5445 5434 5424 5413 5402 5392 5382 5372 5361 5352 5344 5335 5329
5716 5707 5694 5702 5708 5720 5709 5711 5710 5708 5700 5688 5672 5628 5648 5640 5629 5622 5608 5598 5589 5579 5566 5551 5536 5515 5493 5479 5467 5459 5448 5435 5425 5415 5405 5394 5382 5372 5361 5351 5343 5335 5328 5322
5705 5706 5694 5673 5680 5695 5692 5697 5700 5696 5678 5681 5662 5641 5643 5636 5625 5614 5603 5594 5582 5571 5558 5545 5529 5508 5487 5467 5455 5449 5440 5428 5417 5407 5396 5384 5372 5362 5352 5343 5335 5329 5323 5318
5708 5687 5694 5693 5694 5693 5691 5689 5688 5680 5682 5667 5658 5643 5635 5628 5620 5610 5599 5589 5576 5564 5551 5538 5518 5490 5469 5453 5446 5442 5433 5421 5410 5398 5386 5374 5363 5353 5344 5336 5329 5323 5318 5314
5701 5678 5687 5677 5689 5687 5677 5681 5677 5673 5672 5666 5657 5633 5633 5626 5618 5606 5594 5584 5573 5560 5546 5529 5498 5475 5458 5445 5442 5435 5426 5413 5402 5390 5377 5365 5354 5345 5337 5329 5324 5319 5314 5310
5687 5679 5674 5666 5680 5674 5656 5666 5667 5663 5661 5658 5637 5633 5636 5626 5615 5603 5593 5582 5569 5554 5536 5508 5483 5464 5449 5443 5439 5431 5420 5407 5393 5380 5368 5357 5346 5338 5330 5324 5320 5315 5311 5307
5679 5676 5675 5662 5664 5614 5659 5673 5671 5655 5653 5653 5643 5636 5629 5615 5604 5593 5586 5574 5558 5542 5512 5489 5471 5455 5446 5442 5436 5426 5413 5399 5384 5371 5359 5349 5339 5331 5324 5320 5316 5312 5308 5303
5687 5676 5656 5640 5645 5655 5658 5660 5657 5653 5639 5647 5638 5631 5622 5607 5593 5575 5569 5556 5540 5519 5498 5481 5464 5453 5449 5442 5430 5419 5406 5392 5377 5362 5352 5343 5333 5325 5320 5316 5313 5309 5304 5300
5676 5676 5663 5641 5635 5627 5661 5667 5669 5661 5628 5642 5637 5627 5619 5609 5583 5562 5549 5534 5517 5502 5487 5472 5460 5456 5448 5435 5423 5410 5398 5382 5367 5355 5346 5337 5328 5322 5318 5313 5309 5305 5299 5294
5653 5655 5652 5640 5632 5650 5668 5665 5662 5628 5620 5636 5632 5621 5609 5590 5580 5555 5540 5524 5508 5493 5478 5469 5464 5454 5440 5427 5417 5404 5387 5372 5360 5349 5339 5332 5325 5319 5316 5310 5304 5300 5292 5287
5654 5651 5652 5650 5641 5619 5664 5655 5638 5633 5635 5628 5618 5603 5589 5576 5561 5546 5529 5513 5498 5485 5477 5471 5460 5445 5432 5422 5412 5395 5380 5367 5353 5343 5336 5329 5323 5319 5315 5308 5300 5294 5286 5282
5652 5662 5657 5656 5644 5657 5658 5648 5647 5640 5628 5618 5605 5594 5583 5567 5554 5540 5523 5508 5496 5488 5480 5467 5452 5439 5425 5413 5400 5386 5371 5358 5349 5340 5331 5327 5323 5318 5315 5307 5300 5292 5284 5279
5659 5668 5648 5649 5645 5645 5644 5643 5639 5631 5619 5609 5600 5588 5576 5560 5546 5533 5519 5508 5497 5484 5471 5459 5447 5433 5418 5405 5392 5378 5364 5354 5344 5339 5335 5325 5321 5317 5313 5306 5299 5292 5285 5280
5658 5659 5648 5643 5642 5637 5635 5630 5624 5618 5611 5601 5591 5579 5565 5552 5539 5526 5515 5503 5489 5475 5464 5451 5435 5418 5405 5394 5383 5374 5365 5356 5348 5340 5332 5321 5319 5314 5311 5305 5297 5291 5287 5279
5656 5650 5638 5632 5637 5635 5623 5618 5615 5607 5599 5590 5579 5567 5555 5545 5532 5521 5509 5496 5482 5468 5455 5437 5421 5408 5397 5389 5379 5372 5363 5351 5341 5333 5327 5320 5315 5310 5308 5304 5299 5294 5289 5283